DIRECTV 8 (28659 NORAD) Tracking and Keplerian Element Data

This shows tracking and keplerian element data for the satellite.

Feedback or suggestion? Click here.




ElementValue
Catalog28659
NameDIRECTV 8
Epoch Orbit4966
Epoch Day345.05833576
Epoch Year2018
RAAN346.5718
Inclination0.0236
Eccentricity0.0002738
Argument of Perigee262.2807
Mean Anonmoly111.1182
Mean Motion1.00270532
Decay Rate-1.11E-06
L11 28659U 05019A 18345.05833576 -.00000111 00000-0 00000+0 0 9996
L22 28659 0.0236 346.5718 0002738 262.2807 111.1182 1.00270532 49664

Live tracking and technical data element details for DIRECTV 8 (NORAD 28659). DIRECTV 8 can be tracked NOW for your location showing map with azimuth and elevation plus other details from your city location.

Track the satellite on the map from your city or location and see movement details for azimuth, elevation, latitude, longitude, range, height, and movement on the map or in text.







IsCatalogInMostPopularTable: catalog: 28659, numindb: 65
Update: records affected: 1



GetName: 28659 DIRECTV 8

Hit Count: updated at: Thu, 13 Dec 2018 03:32:04 GMT